Weather reports worldwide

Advertisment
Verhnedvinsk, Belarus (26554): temperature & dewpoint: 09.12.2019 21:00:00 - 15.12.2019 21:00:00 (MSK)Verhnedvinsk, Belarus (26554): wind speed: 09.12.2019 21:00:00 - 15.12.2019 21:00:00 (MSK)Verhnedvinsk, Belarus (26554): wind direction: 09.12.2019 21:00:00 - 15.12.2019 21:00:00 (MSK)Verhnedvinsk, Belarus (26554): reduced air pressure: 09.12.2019 21:00:00 - 15.12.2019 21:00:00 (MSK)Verhnedvinsk, Belarus (26554): visibility: 09.12.2019 21:00:00 - 15.12.2019 21:00:00 (MSK)
Date & Time tt [°C] td [°C] ff [km/h] ff [kn] dd ppp [hPa] vv [km]
15.12.2019 21:00:00 2,1 1,6 11 6 SSW 1003,3 12
15.12.2019 20:00:00 - - - - - - -
15.12.2019 19:00:00 - - - - - - -
15.12.2019 18:00:00 1,9 1,7 11 6 SW 1002,2 12
15.12.2019 17:00:00 - - - - - - -
15.12.2019 16:00:00 - - - - - - -
15.12.2019 15:00:00 1,1 0,8 11 6 SW 999,9 9
15.12.2019 14:00:00 - - - - - - -
15.12.2019 13:00:00 - - - - - - -
15.12.2019 12:00:00 0,3 0,1 11 6 SSE 998,6 2,3
15.12.2019 11:00:00 - - - - - - -
15.12.2019 10:00:00 - - - - - - -
15.12.2019 09:00:00 0,2 0,2 11 6 SE 998,9 2,8
15.12.2019 08:00:00 - - - - - - -
15.12.2019 07:00:00 - - - - - - -
15.12.2019 06:00:00 0,2 -0,1 11 6 SE 999,8 2,7
15.12.2019 05:00:00 - - - - - - -
15.12.2019 04:00:00 - - - - - - -
15.12.2019 03:00:00 0,2 -0,1 14 8 SE 1000,8 2,3
15.12.2019 02:00:00 - - - - - - -
15.12.2019 01:00:00 - - - - - - -
15.12.2019 00:00:00 0,8 0,2 14 8 SE 1001,5 3,5
14.12.2019 23:00:00 - - - - - - -
14.12.2019 22:00:00 - - - - - - -
14.12.2019 21:00:00 0,9 0,2 18 10 SE 1002,4 5
14.12.2019 20:00:00 - - - - - - -
14.12.2019 19:00:00 - - - - - - -
14.12.2019 18:00:00 0,9 0,3 18 10 SE 1003,5 5
14.12.2019 17:00:00 - - - - - - -
14.12.2019 16:00:00 - - - - - - -
14.12.2019 15:00:00 0,7 0,4 14 8 SE 1003,9 3,7
14.12.2019 14:00:00 - - - - - - -
14.12.2019 13:00:00 - - - - - - -
14.12.2019 12:00:00 0,9 -0,5 14 8 SSE 1004,3 10
14.12.2019 11:00:00 - - - - - - -
14.12.2019 10:00:00 - - - - - - -
14.12.2019 09:00:00 0,2 -0,3 14 8 SE 1003,8 10
14.12.2019 08:00:00 - - - - - - -
14.12.2019 07:00:00 - - - - - - -
14.12.2019 06:00:00 0,3 -1,2 18 10 SE 1004,3 5
14.12.2019 05:00:00 - - - - - - -
14.12.2019 04:00:00 - - - - - - -
14.12.2019 03:00:00 0,9 -1,4 18 10 SE 1003,9 10
14.12.2019 02:00:00 - - - - - - -
14.12.2019 01:00:00 - - - - - - -
14.12.2019 00:00:00 1,1 -1,3 18 10 SSE 1004,7 10
13.12.2019 23:00:00 - - - - - - -
13.12.2019 22:00:00 - - - - - - -
13.12.2019 21:00:00 1,5 -1,6 18 10 SSE 1004,6 10
13.12.2019 20:00:00 - - - - - - -
13.12.2019 19:00:00 - - - - - - -
13.12.2019 18:00:00 1,9 -0,4 14 8 SE 1004,6 10
13.12.2019 17:00:00 - - - - - - -
13.12.2019 16:00:00 - - - - - - -
13.12.2019 15:00:00 1,6 0,3 14 8 SE 1005,6 10
13.12.2019 14:00:00 - - - - - - -
13.12.2019 13:00:00 - - - - - - -
13.12.2019 12:00:00 1,4 0,0 14 8 SE 1008,1 10
13.12.2019 11:00:00 - - - - - - -
13.12.2019 10:00:00 - - - - - - -
13.12.2019 09:00:00 1,9 0,0 14 8 S 1008,8 11
13.12.2019 08:00:00 - - - - - - -
13.12.2019 07:00:00 - - - - - - -
13.12.2019 06:00:00 2,0 0,2 18 10 SSE 1009,5 10
13.12.2019 05:00:00 - - - - - - -
13.12.2019 04:00:00 - - - - - - -
13.12.2019 03:00:00 2,6 1,1 14 8 S 1010,3 10
13.12.2019 02:00:00 - - - - - - -
13.12.2019 01:00:00 - - - - - - -
13.12.2019 00:00:00 2,2 1,6 18 10 S 1010,8 10
12.12.2019 23:00:00 - - - - - - -
12.12.2019 22:00:00 - - - - - - -
12.12.2019 21:00:00 1,7 0,7 22 12 S 1011,4 12
12.12.2019 20:00:00 - - - - - - -
12.12.2019 19:00:00 - - - - - - -
12.12.2019 18:00:00 0,9 0,4 18 10 SSE 1012,2 5
12.12.2019 17:00:00 - - - - - - -
12.12.2019 16:00:00 - - - - - - -
12.12.2019 15:00:00 0,1 -0,8 18 10 SE 1013,5 2,7
12.12.2019 14:00:00 - - - - - - -
12.12.2019 13:00:00 - - - - - - -
12.12.2019 12:00:00 -0,4 -1,6 18 10 SE 1015,8 12
12.12.2019 11:00:00 - - - - - - -
12.12.2019 10:00:00 - - - - - - -
12.12.2019 09:00:00 -0,1 -1,0 11 6 SE 1016,9 15
12.12.2019 08:00:00 - - - - - - -
12.12.2019 07:00:00 - - - - - - -
12.12.2019 06:00:00 -0,2 -1,9 11 6 SSE 1018,2 14
12.12.2019 05:00:00 - - - - - - -
12.12.2019 04:00:00 - - - - - - -
12.12.2019 03:00:00 -0,8 -2,0 7 4 SSE 1019,4 15
12.12.2019 02:00:00 - - - - - - -
12.12.2019 01:00:00 - - - - - - -
12.12.2019 00:00:00 -0,1 -1,1 7 4 S 1020,5 15
11.12.2019 23:00:00 - - - - - - -
11.12.2019 22:00:00 - - - - - - -
11.12.2019 21:00:00 -0,1 -1,1 7 4 S 1020,4 12
11.12.2019 20:00:00 - - - - - - -
11.12.2019 19:00:00 - - - - - - -
11.12.2019 18:00:00 -0,2 -1,0 7 4 SE 1020,6 15
11.12.2019 17:00:00 - - - - - - -
11.12.2019 16:00:00 - - - - - - -
11.12.2019 15:00:00 -1,3 -1,7 7 4 SW 1021,3 12
11.12.2019 14:00:00 - - - - - - -
11.12.2019 13:00:00 - - - - - - -
11.12.2019 12:00:00 -1,0 -1,6 0 0 N 1022,0 15
11.12.2019 11:00:00 - - - - - - -
11.12.2019 10:00:00 - - - - - - -
11.12.2019 09:00:00 -2,1 -2,9 4 2 ENE 1021,2 15
11.12.2019 08:00:00 - - - - - - -
11.12.2019 07:00:00 - - - - - - -
11.12.2019 06:00:00 -0,8 -1,5 4 2 NNW 1020,2 10
11.12.2019 05:00:00 - - - - - - -
11.12.2019 04:00:00 - - - - - - -
11.12.2019 03:00:00 0,4 -0,6 11 6 N 1018,3 10
11.12.2019 02:00:00 - - - - - - -
11.12.2019 01:00:00 - - - - - - -
11.12.2019 00:00:00 3,1 3,0 7 4 W 1015,5 8
10.12.2019 23:00:00 - - - - - - -
10.12.2019 22:00:00 - - - - - - -
10.12.2019 21:00:00 3,8 3,3 11 6 WNW 1013,4 8
10.12.2019 20:00:00 - - - - - - -
10.12.2019 19:00:00 - - - - - - -
10.12.2019 18:00:00 4,6 3,8 11 6 SW 1010,9 7
10.12.2019 17:00:00 - - - - - - -
10.12.2019 16:00:00 - - - - - - -
10.12.2019 15:00:00 4,4 3,2 7 4 SW 1009,4 7
10.12.2019 14:00:00 - - - - - - -
10.12.2019 13:00:00 - - - - - - -
10.12.2019 12:00:00 3,3 3,1 14 8 SSW 1008,8 6
10.12.2019 11:00:00 - - - - - - -
10.12.2019 10:00:00 - - - - - - -
10.12.2019 09:00:00 2,5 2,2 11 6 S 1007,5 3,8
10.12.2019 08:00:00 - - - - - - -
10.12.2019 07:00:00 - - - - - - -
10.12.2019 06:00:00 2,3 2,1 11 6 S 1006,8 3,8
10.12.2019 05:00:00 - - - - - - -
10.12.2019 04:00:00 - - - - - - -
10.12.2019 03:00:00 4,0 2,8 7 4 S 1005,5 8
10.12.2019 02:00:00 - - - - - - -
10.12.2019 01:00:00 - - - - - - -
10.12.2019 00:00:00 5,1 4,2 14 8 SSW 1004,0 10
09.12.2019 23:00:00 - - - - - - -
09.12.2019 22:00:00 - - - - - - -
09.12.2019 21:00:00 5,0 4,2 14 8 SSW 1002,3 10

tt = temperature
td = dewpoint
ff = wind speed
dd = wind direction
ppp = reduced air pressure
vv = visibility

Next stations